Location: A�t �Alizem
(31.2076°N, 8.7872°W)
Time: 04:01:28
(UTC+00:00)

Cosmos 1241 Rocket - Pass Details

Date: 27 November 2020
Orbit: 928 x 1020 km, 65.8° (Epoch: 26 January)

Event Time Altitude Azimuth Distance (km) Brightness Sun altitude
Rises 19:22:45 0° 334° (NNW) 3,760 7.8 -23.2°
Reaches altitude 10° 19:25:21 10° 335° (NNW) 2,808 7.1 -23.7°
Maximum altitude 19:32:00 86° 64° (ENE) 1,022 4.4 -25.1°
Enters shadow 19:38:18 11° 154° (SSE) 2,679 6.6 -26.4°
